Terminal Aerodrome Forecast
Issued by NWS

Home | Current Version | Previous Version | Graphics & Text | Print | Product List | Glossary On
Versions: 1 2 3 4 5 6 7 8 9 10 11 12 13 14 15 16 17 18 19 20 21 22 23 24
000
FTUS42 KMHX 011723
TAFOAJ
TAF
KOAJ 011723Z 0118/0218 35005KT P6SM SCT060 BKN080
     FM011930 35010G20KT P6SM SHRA BKN012
     FM020000 34010KT P6SM SCT015 BKN035
     FM020500 32005KT P6SM SKC
     FM021400 35010G15KT P6SM SKC
      AMD LTD TO CLD VIS AND WIND=

USA.gov is the U.S. government's official web portal to all federal, state and local government web resources and services.